GW2011 Weather Reports


Display with metric or nautical units.
time (UTC)temp
F
wind
direction
speed
MPH
gust
MPH
rain 1hr
in
rain 24hr
in
rain mn
in
humidity
%
barometer
mb
20260507012515 42 0 0.0 2.0 0.00 0.00 0.00 54 1011.1
20260507012015 42 295 0.0 2.0 0.00 0.00 0.00 55 1011.2
20260507011538 42 0 0.0 1.0 0.00 0.00 0.00 53 1011.0
20260507011015 42 0 0.0 2.0 0.00 0.00 0.00 53 1010.9
20260507010516 42 295 0.0 2.0 0.00 0.00 0.00 53 1011.0
20260507010035 42 0 0.0 3.0 0.00 0.00 0.00 53 1011.2
20260507005516 42 0 1.0 3.0 0.00 0.00 0.00 52 1011.1
20260507005015 42 294 0.0 3.0 0.00 0.00 0.00 53 1011.2
20260507004537 42 0 0.0 4.0 0.00 0.00 0.00 53 1011.1
20260507004016 42 0 0.0 4.0 0.00 0.00 0.00 53 1011.2
20260507003516 42 304 0.0 6.0 0.00 0.00 0.00 52 1011.2
20260507003034 43 304 1.0 6.0 0.00 0.00 0.00 52 1011.3
20260507002515 43 311 1.0 3.0 0.00 0.00 0.00 52 1011.3
20260507002017 43 252 0.0 4.0 0.00 0.00 0.00 52 1011.2
20260507001540 43 252 1.0 4.0 0.00 0.00 0.00 54 1011.3
20260507001014 43 38 0.0 3.0 0.00 0.00 0.00 51 1011.3
20260507000514 43 38 0.0 3.0 0.00 0.00 0.00 51 1011.2
20260507000032 43 301 1.0 4.0 0.00 0.00 0.00 52 1011.3
20260506235515 43 292 1.0 5.0 0.00 0.00 0.00 51 1011.5
20260506235015 43 306 2.0 5.0 0.00 0.00 0.00 51 1011.6
20260506234533 43 284 1.0 4.0 0.00 0.00 0.00 51 1011.5
20260506234015 43 246 1.0 7.0 0.00 0.00 0.00 51 1011.6
20260506233516 43 275 1.0 8.0 0.00 0.00 0.00 51 1011.6
20260506233031 43 292 2.0 8.0 0.00 0.00 0.00 52 1011.6
20260506232515 43 288 2.0 6.0 0.00 0.00 0.00 50 1011.8
20260506232013 43 313 1.0 6.0 0.00 0.00 0.00 52 1011.7
20260506231534 43 292 2.0 4.0 0.00 0.00 0.00 50 1011.7
20260506231014 43 284 2.0 7.0 0.00 0.00 0.00 50 1011.7
20260506230517 43 288 2.0 7.0 0.00 0.00 0.00 50 1011.7
20260506230037 43 300 2.0 5.0 0.00 0.00 0.00 50 1011.9
20260506225516 44 299 1.0 4.0 0.00 0.00 0.00 50 1011.8
20260506225015 43 306 1.0 4.0 0.00 0.00 0.00 52 1011.9
20260506224534 43 298 1.0 7.0 0.00 0.00 0.00 51 1011.9
20260506224014 43 283 1.0 7.0 0.00 0.00 0.00 52 1012.1
20260506223520 43 0 1.0 8.0 0.00 0.00 0.00 51 1012.0
20260506223033 43 0 3.0 8.0 0.00 0.00 0.00 50 1011.9
20260506222516 43 297 2.0 5.0 0.00 0.00 0.00 51 1011.8
20260506222013 43 302 1.0 5.0 0.00 0.00 0.00 52 1012.0
20260506221532 43 311 1.0 7.0 0.00 0.00 0.00 52 1012.0
20260506221013 43 279 2.0 7.0 0.00 0.00 0.00 53 1012.0
20260506220515 43 253 2.0 7.0 0.00 0.00 0.00 52 1012.1
20260506220038 43 333 2.0 7.0 0.00 0.00 0.00 53 1012.1
20260506215517 43 271 3.0 8.0 0.00 0.00 0.00 56 1012.2
20260506215015 42 289 3.0 9.0 0.00 0.00 0.00 52 1012.2
20260506214531 42 282 3.0 12.0 0.00 0.00 0.00 54 1012.2
20260506214012 42 281 6.0 12.0 0.00 0.00 0.00 56 1012.3
20260506213515 42 249 3.0 9.0 0.00 0.00 0.00 54 1012.3
20260506213032 43 271 5.0 9.0 0.00 0.00 0.00 52 1012.4
20260506212517 42 309 2.0 7.0 0.00 0.00 0.00 52 1012.5
20260506212013 42 292 2.0 10.0 0.00 0.00 0.00 53 1012.5
20260506211534 42 292 4.0 12.0 0.00 0.00 0.00 53 1012.6
20260506211015 42 277 6.0 12.0 0.00 0.00 0.00 57 1012.5
20260506210514 42 258 5.0 11.0 0.00 0.00 0.00 56 1012.6
20260506210032 42 276 5.0 11.0 0.00 0.00 0.00 52 1012.8
20260506205514 42 254 6.0 13.0 0.00 0.00 0.00 57 1012.6
20260506205014 42 257 6.0 13.0 0.00 0.00 0.00 55 1012.6
20260506204534 43 271 6.0 11.0 0.00 0.00 0.00 53 1012.8
20260506204017 43 267 6.0 12.0 0.00 0.00 0.00 54 1012.7
20260506203516 43 271 6.0 12.0 0.00 0.00 0.00 54 1012.7
20260506203031 43 263 4.0 13.0 0.00 0.00 0.00 53 1012.5
20260506202513 43 36 3.0 14.0 0.00 0.00 0.00 51 1012.7
20260506202019 43 265 6.0 14.0 0.00 0.00 0.00 57 1012.7
20260506201532 43 265 5.0 11.0 0.00 0.00 0.00 54 1012.7
20260506201014 43 310 6.0 11.0 0.00 0.00 0.00 54 1012.9
20260506200516 43 287 4.0 10.0 0.00 0.00 0.00 54 1012.6
20260506200033 43 270 4.0 10.0 0.00 0.00 0.00 52 1012.6
20260506195515 43 303 6.0 10.0 0.00 0.00 0.00 52 1012.7
20260506195016 43 281 4.0 13.0 0.00 0.00 0.00 54 1012.8
20260506194532 43 268 7.0 13.0 0.00 0.00 0.00 53 1012.7
20260506194013 43 307 4.0 10.0 0.00 0.00 0.00 51 1012.8
20260506193513 42 292 3.0 13.0 0.00 0.00 0.00 52 1012.7
20260506193031 42 288 7.0 13.0 0.00 0.00 0.00 55 1012.7
20260506192515 42 286 6.0 14.0 0.00 0.00 0.00 53 1012.7
20260506192016 43 288 6.0 14.0 0.00 0.00 0.00 53 1012.6
20260506191534 43 280 4.0 9.0 0.00 0.00 0.00 52 1012.6
20260506191016 43 252 3.0 9.0 0.00 0.00 0.00 53 1012.8
20260506190519 42 316 2.0 8.0 0.00 0.00 0.00 52 1012.6
20260506190034 42 294 3.0 12.0 0.00 0.00 0.00 52 1012.8
20260506185515 42 336 4.0 12.0 0.00 0.00 0.00 55 1012.6
20260506185013 42 284 3.0 13.0 0.00 0.00 0.00 52 1012.8
20260506184534 41 283 7.0 13.0 0.00 0.00 0.00 56 1012.8
20260506184020 42 277 3.0 10.0 0.00 0.00 0.00 53 1012.8
20260506183515 42 257 3.0 10.0 0.00 0.00 0.00 55 1012.9
20260506183034 41 340 5.0 10.0 0.00 0.00 0.00 56 1012.8
20260506182516 41 252 4.0 10.0 0.00 0.00 0.00 54 1012.8
20260506182014 41 346 2.0 11.0 0.00 0.00 0.00 56 1013.0
20260506181532 41 281 4.0 11.0 0.00 0.00 0.00 54 1013.1
20260506181016 41 267 1.0 6.0 0.00 0.00 0.00 55 1013.1
20260506180517 41 355 3.0 6.0 0.00 0.00 0.00 54 1013.2
20260506180032 40 266 2.0 8.0 0.00 0.00 0.00 56 1013.1
20260506175515 40 286 2.0 8.0 0.00 0.00 0.00 55 1013.2
20260506175022 40 279 2.0 6.0 0.00 0.00 0.00 56 1013.3
20260506174532 40 326 2.0 7.0 0.00 0.00 0.00 54 1013.3
20260506174014 40 298 2.0 7.0 0.00 0.00 0.00 56 1013.4
20260506173515 40 277 2.0 9.0 0.00 0.00 0.00 56 1013.4
20260506173036 39 331 3.0 9.0 0.00 0.00 0.00 57 1013.4
20260506172515 39 280 2.0 6.0 0.00 0.00 0.00 58 1013.6
20260506172017 39 322 2.0 6.0 0.00 0.00 0.00 59 1013.6
20260506171533 39 312 1.0 7.0 0.00 0.00 0.00 59 1013.4
20260506171015 39 302 2.0 7.0 0.00 0.00 0.00 57 1013.7
20260506170515 39 334 0.0 3.0 0.00 0.00 0.00 58 1013.7
20260506170036 39 313 1.0 7.0 0.00 0.00 0.00 59 1013.7
20260506165515 39 288 2.0 7.0 0.00 0.00 0.00 56 1013.7
20260506165015 39 294 2.0 6.0 0.00 0.00 0.00 58 1013.7
20260506164534 39 305 3.0 6.0 0.00 0.00 0.00 57 1013.6
20260506164014 39 285 2.0 6.0 0.00 0.00 0.00 60 1013.6
20260506163515 39 299 2.0 6.0 0.00 0.00 0.00 59 1013.7
20260506163037 38 290 0.0 4.0 0.00 0.00 0.00 60 1013.8
20260506162515 38 0 1.0 4.0 0.00 0.00 0.00 59 1013.8
20260506162016 38 341 1.0 4.0 0.00 0.00 0.00 59 1013.8
20260506161535 38 319 1.0 5.0 0.00 0.00 0.00 58 1013.7
20260506161016 38 17 2.0 7.0 0.00 0.00 0.00 59 1013.8
20260506160517 38 290 3.0 7.0 0.00 0.00 0.00 59 1013.7
20260506160031 38 296 1.0 6.0 0.00 0.00 0.00 61 1013.6
20260506155513 38 292 2.0 6.0 0.00 0.00 0.00 59 1013.7
20260506155015 38 309 1.0 4.0 0.00 0.00 0.00 59 1013.9
20260506154533 38 0 1.0 6.0 0.00 0.00 0.00 59 1013.7
20260506154017 38 291 2.0 6.0 0.00 0.00 0.00 61 1013.8
20260506153516 38 330 2.0 4.0 0.00 0.00 0.00 60 1013.7
20260506153031 37 278 2.0 4.0 0.00 0.00 0.00 60 1013.6
20260506152513 37 309 0.0 4.0 0.00 0.00 0.00 61 1013.5
20260506152017 37 0 0.0 4.0 0.00 0.00 0.00 63 1013.4
20260506151534 37 286 1.0 4.0 0.00 0.00 0.00 63 1013.6
20260506151015 37 340 1.0 4.0 0.00 0.00 0.00 63 1013.6
20260506150516 37 0 1.0 4.0 0.00 0.00 0.00 63 1013.6
20260506150034 37 336 1.0 2.0 0.00 0.00 0.00 64 1013.5
20260506145516 37 0 0.0 3.0 0.00 0.00 0.00 64 1013.7
20260506145017 37 276 0.0 4.0 0.00 0.00 0.00 64 1013.5
20260506144540 37 269 1.0 4.0 0.00 0.00 0.00 65 1013.6
20260506144016 37 314 0.0 3.0 0.00 0.00 0.00 65 1013.6
20260506143516 37 320 1.0 4.0 0.00 0.00 0.00 64 1013.7
20260506143032 37 305 2.0 5.0 0.00 0.00 0.00 63 1013.7
20260506142515 36 293 1.0 5.0 0.00 0.00 0.00 64 1013.7
20260506142015 36 292 1.0 4.0 0.00 0.00 0.00 64 1013.6
20260506141536 36 0 1.0 3.0 0.00 0.00 0.00 64 1013.8
20260506141015 36 288 1.0 3.0 0.00 0.00 0.00 65 1013.6
20260506140516 36 0 0.0 2.0 0.00 0.00 0.00 65 1013.6
20260506140032 36 288 0.0 3.0 0.00 0.00 0.00 65 1013.6
20260506135515 36 0 0.0 3.0 0.00 0.00 0.00 64 1013.6
20260506135021 36 0 0.0 3.0 0.00 0.00 0.00 64 1013.5
20260506134534 36 284 1.0 3.0 0.00 0.00 0.00 66 1013.4
20260506134013 36 117 1.0 2.0 0.00 0.00 0.00 64 1013.5
20260506133517 36 117 0.0 2.0 0.00 0.00 0.00 65 1013.4
20260506133040 36 117 0.0 2.0 0.00 0.00 0.00 65 1013.4
20260506132517 36 117 0.0 2.0 0.00 0.00 0.00 66 1013.4
20260506132015 35 0 0.0 2.0 0.00 0.00 0.00 66 1013.2
20260506131532 35 0 0.0 2.0 0.00 0.00 0.00 67 1013.3
20260506131014 35 0 0.0 1.0 0.00 0.00 0.00 67 1013.3
20260506130514 35 318 0.0 1.0 0.00 0.00 0.00 67 1013.1
20260506130031 35 0 0.0 2.0 0.00 0.00 0.00 68 1013.0
20260506125515 35 0 0.0 3.0 0.00 0.00 0.00 68 1013.0
20260506125013 35 318 0.0 3.0 0.00 0.00 0.00 68 1012.8
20260506124531 35 302 0.0 3.0 0.00 0.00 0.00 67 1013.0
20260506124017 35 302 1.0 3.0 0.00 0.00 0.00 68 1012.8
20260506123517 35 303 0.0 2.0 0.00 0.00 0.00 68 1012.9
20260506123030 35 303 0.0 2.0 0.00 0.00 0.00 68 1012.8
20260506122515 34 0 0.0 2.0 0.00 0.00 0.00 68 1012.7
20260506122021 34 303 0.0 2.0 0.00 0.00 0.00 68 1012.7
20260506121534 34 303 0.0 2.0 0.00 0.00 0.00 69 1012.4
20260506121015 34 303 0.0 2.0 0.00 0.00 0.00 68 1012.5
20260506120517 34 303 0.0 2.0 0.00 0.00 0.00 68 1012.3
20260506120034 34 0 0.0 2.0 0.00 0.00 0.00 68 1012.4
20260506115516 34 303 0.0 2.0 0.00 0.00 0.00 69 1012.3
20260506115016 34 0 0.0 2.0 0.00 0.00 0.00 69 1012.2
20260506114533 34 303 0.0 2.0 0.00 0.00 0.00 70 1012.2
20260506114012 34 0 0.0 2.0 0.00 0.00 0.00 70 1012.0
20260506113513 34 0 0.0 2.0 0.00 0.00 0.00 70 1012.1
20260506113032 34 0 0.0 2.0 0.00 0.00 0.00 70 1012.1
20260506112514 34 303 0.0 2.0 0.00 0.00 0.00 70 1012.1
20260506112015 34 303 0.0 1.0 0.00 0.00 0.00 69 1012.0
20260506111531 34 0 0.0 1.0 0.00 0.00 0.00 69 1011.9
20260506111012 34 0 0.0 2.0 0.00 0.00 0.00 69 1011.9
20260506110512 34 303 0.0 2.0 0.00 0.00 0.00 68 1012.0
20260506110030 34 303 0.0 1.0 0.00 0.00 0.00 69 1012.0
20260506105515 34 0 0.0 1.0 0.00 0.00 0.00 68 1012.0
20260506105019 34 0 0.0 1.0 0.00 0.00 0.00 68 1011.9
20260506104533 34 0 0.0 1.0 0.00 0.00 0.00 68 1011.9
20260506104016 34 0 0.0 2.0 0.00 0.00 0.00 68 1011.9
20260506103514 34 303 1.0 2.0 0.00 0.00 0.00 68 1011.9
20260506103032 34 303 1.0 2.0 0.00 0.00 0.00 68 1011.9
20260506102515 34 303 0.0 2.0 0.00 0.00 0.00 69 1011.8
20260506102013 33 303 0.0 1.0 0.00 0.00 0.00 68 1011.8
20260506101532 33 0 0.0 1.0 0.00 0.00 0.00 68 1011.9
20260506101014 33 0 0.0 1.0 0.00 0.00 0.00 69 1011.9
20260506100517 33 0 0.0 1.0 0.00 0.00 0.00 69 1011.8
20260506100031 33 0 0.0 1.0 0.00 0.00 0.00 70 1011.8
20260506095513 33 0 0.0 1.0 0.00 0.00 0.00 70 1011.6
20260506095014 33 0 0.0 1.0 0.00 0.00 0.00 70 1011.6
20260506094531 33 0 0.0 1.0 0.00 0.00 0.00 70 1011.6
20260506094016 33 0 0.0 1.0 0.00 0.00 0.00 71 1011.6
20260506093513 32 0 0.0 1.0 0.00 0.00 0.00 71 1011.5
20260506093038 32 0 0.0 1.0 0.00 0.00 0.00 71 1011.6
20260506092515 32 0 0.0 1.0 0.00 0.00 0.00 71 1011.5
20260506092016 32 303 0.0 1.0 0.00 0.00 0.00 71 1011.5
20260506091534 32 0 0.0 2.0 0.00 0.00 0.00 71 1011.5
20260506091014 32 0 0.0 2.0 0.00 0.00 0.00 71 1011.3
20260506090513 32 0 0.0 1.0 0.00 0.00 0.00 71 1011.4
20260506090032 32 0 0.0 1.0 0.00 0.00 0.00 71 1011.5
20260506085514 32 0 0.0 2.0 0.00 0.00 0.00 71 1011.4
20260506085014 32 0 0.0 2.0 0.00 0.00 0.00 71 1011.2
20260506084536 32 303 0.0 2.0 0.00 0.00 0.00 71 1011.2
20260506084015 32 303 0.0 2.0 0.00 0.00 0.00 71 1011.1
20260506083514 32 0 0.0 3.0 0.00 0.00 0.00 71 1011.2
20260506083037 32 303 0.0 3.0 0.00 0.00 0.00 71 1011.2
20260506082515 32 303 0.0 2.0 0.00 0.00 0.00 71 1011.3
20260506082013 32 303 0.0 2.0 0.00 0.00 0.00 71 1011.3
20260506081533 32 0 0.0 2.0 0.00 0.00 0.00 71 1011.1
20260506081015 32 0 0.0 2.0 0.00 0.00 0.00 71 1011.2
20260506080516 32 0 0.0 2.0 0.00 0.00 0.00 71 1011.2
20260506073515 32 0 0.0 2.0 0.00 0.00 0.00 70 1011.2
20260506073032 32 303 0.0 2.0 0.00 0.00 0.00 70 1011.1
20260506072517 32 303 0.0 2.0 0.00 0.00 0.00 70 1011.0
20260506072014 32 0 0.0 2.0 0.00 0.00 0.00 70 1011.0
20260506071531 31 0 0.0 2.0 0.00 0.00 0.00 70 1010.8
20260506071014 31 303 0.0 1.0 0.00 0.00 0.00 71 1010.9
20260506070512 32 0 0.0 1.0 0.00 0.00 0.00 71 1010.9
20260506062512 31 303 0.0 2.0 0.00 0.00 0.00 71 1011.0
20260506062015 31 303 0.0 2.0 0.00 0.00 0.00 71 1011.2
20260506061532 31 303 1.0 2.0 0.00 0.00 0.00 71 1011.3
20260506061015 31 303 0.0 1.0 0.00 0.00 0.00 70 1011.3
20260506060512 32 0 0.0 2.0 0.00 0.00 0.00 70 1011.3
20260506051015 33 303 0.0 2.0 0.00 0.00 0.00 68 1010.7
20260506050516 33 303 0.0 2.0 0.00 0.00 0.00 68 1010.7
20260506045015 33 303 0.0 2.0 0.00 0.00 0.00 67 1010.6
20260506044541 33 303 0.0 2.0 0.00 0.00 0.00 66 1010.7
20260506044015 33 303 0.0 2.0 0.00 0.00 0.00 65 1010.8
20260506043515 34 303 0.0 2.0 0.00 0.00 0.00 65 1010.7
20260506043032 34 303 1.0 2.0 0.00 0.00 0.00 65 1010.7
20260506042516 34 303 0.0 2.0 0.00 0.00 0.00 65 1010.7
20260506042014 34 303 0.0 2.0 0.00 0.00 0.00 64 1010.7
20260506041546 34 303 0.0 2.0 0.00 0.00 0.00 65 1010.5
20260506041015 34 303 0.0 2.0 0.00 0.00 0.00 64 1010.6
20260506040516 34 303 0.0 3.0 0.00 0.00 0.00 64 1010.5
20260506040039 35 303 1.0 3.0 0.00 0.00 0.00 64 1010.4
20260506035513 35 303 1.0 3.0 0.00 0.00 0.00 65 1010.6
20260506035013 35 338 1.0 3.0 0.00 0.00 0.00 65 1010.5
20260506034533 35 338 1.0 2.0 0.00 0.00 0.00 65 1010.3
20260506034011 36 0 0.0 2.0 0.00 0.00 0.00 63 1010.3
20260506033512 36 338 1.0 2.0 0.00 0.00 0.00 62 1010.3
20260506033032 36 338 1.0 2.0 0.00 0.00 0.00 62 1010.2
20260506032514 36 0 0.0 1.0 0.00 0.00 0.00 61 1010.2
20260506032015 36 0 0.0 1.0 0.00 0.00 0.00 60 1010.1
20260506031533 36 0 0.0 1.0 0.00 0.00 0.00 60 1010.0
20260506031014 36 0 0.0 2.0 0.00 0.00 0.00 59 1010.0
20260506030515 37 338 0.0 2.0 0.00 0.00 0.00 59 1010.1
20260506030031 37 338 0.0 1.0 0.00 0.00 0.00 59 1010.2
20260506025515 37 0 0.0 2.0 0.00 0.00 0.00 59 1010.2
20260506025015 37 0 0.0 2.0 0.00 0.00 0.00 58 1010.2
20260506024536 37 0 0.0 2.0 0.00 0.00 0.00 58 1010.3
20260506024019 37 0 0.0 2.0 0.00 0.00 0.00 58 1010.0
20260506023514 38 338 0.0 2.0 0.00 0.00 0.00 58 1010.0
20260506023031 38 0 0.0 1.0 0.00 0.00 0.00 57 1010.2
20260506022515 38 0 0.0 2.0 0.00 0.00 0.00 56 1010.0
20260506022028 38 0 0.0 2.0 0.00 0.00 0.00 56 1010.0
20260506021530 38 338 0.0 2.0 0.00 0.00 0.00 56 1010.1
20260506021018 39 338 0.0 1.0 0.00 0.00 0.00 55 1009.8
20260506020517 39 0 0.0 2.0 0.00 0.00 0.00 55 1009.8
20260506020034 39 0 0.0 2.0 0.00 0.00 0.00 55 1009.6
20260506015516 39 338 0.0 3.0 0.00 0.00 0.00 54 1009.7
20260506015015 39 0 0.0 3.0 0.00 0.00 0.00 53 1009.6
20260506014532 40 332 1.0 3.0 0.00 0.00 0.00 53 1009.5
20260506014014 40 309 1.0 3.0 0.00 0.00 0.00 53 1009.5
20260506013516 40 332 1.0 3.0 0.00 0.00 0.00 52 1009.4
20260506013037 40 331 1.0 3.0 0.00 0.00 0.00 52 1009.6